When you browse on this site, cookies collect data to enhance your experience and personalize the content and advertising you see.
Visit our Privacy Policy to learn more. By continuing to use the site, you agree to this use of cookies and data.
  • In Switzerland
  • List of Countries
  • For 7 days
  • Water Temperature
  • Weather Map
  • Weather Widgets
  • user-avatar
    Login

    Hourly Weather Wilmington

    Today, 8 December, Sunday

    Time Temperature Precipitation Wind Pressure Humidity
    00:00 +1°C° 0 mm 1 mps 774 mmHg 61%
    01:00 +1°C° 0 mm 1 mps 774 mmHg 62%
    02:00 +1°C° 0 mm 1 mps 774 mmHg 62%
    03:00 0°C° 0 mm 1 mps 774 mmHg 62%
    04:00 0°C° 0 mm 1 mps 774 mmHg 61%
    05:00 0°C° 0 mm 1 mps 774 mmHg 60%
    06:00 0°C° 0 mm 1 mps 774 mmHg 59%
    07:00 0°C° 0 mm 1 mps 774 mmHg 58%
    08:00 -1°C° 0 mm 2 mps 774 mmHg 52%
    09:00 +1°C° 0 mm 2 mps 774 mmHg 46%
    10:00 +2°C° 0 mm 2 mps 774 mmHg 40%
    11:00 +3°C° 0 mm 3 mps 773 mmHg 43%
    12:00 +4°C° 0 mm 3 mps 773 mmHg 47%
    13:00 +5°C° 0 mm 4 mps 772 mmHg 50%
    14:00 +5°C° 0 mm 3 mps 772 mmHg 55%
    15:00 +5°C° 0 mm 3 mps 771 mmHg 61%
    16:00 +6°C° 0 mm 2 mps 771 mmHg 66%
    17:00 +5°C° 0 mm 2 mps 771 mmHg 71%
    18:00 +3°C° 0 mm 3 mps 771 mmHg 77%
    19:00 +3°C° 0 mm 3 mps 771 mmHg 82%
    20:00 +4°C° 0 mm 2 mps 770 mmHg 84%
    21:00 +4°C° 0 mm 2 mps 770 mmHg 85%
    22:00 +4°C° 0 mm 2 mps 769 mmHg 87%
    23:00 +4°C° 0 mm 2 mps 769 mmHg 87%

    Tomorrow, 9 December, Monday

    Time Temperature Precipitation Wind Pressure Humidity
    00:00 +5°C° 0 mm 2 mps 769 mmHg 88%
    01:00 +5°C° 0 mm 2 mps 768 mmHg 89%
    02:00 +5°C° 0 mm 2 mps 768 mmHg 90%
    03:00 +5°C° 0 mm 2 mps 767 mmHg 91%
    04:00 +5°C° 0 mm 2 mps 767 mmHg 93%
    05:00 +5°C° 0 mm 2 mps 766 mmHg 94%
    06:00 +6°C° 0 mm 2 mps 766 mmHg 96%
    07:00 +7°C° 0 mm 2 mps 765 mmHg 97%
    08:00 +8°C° 1.2 mm 3 mps 765 mmHg 97%
    09:00 +9°C° 1.2 mm 3 mps 764 mmHg 97%
    10:00 +11°C° 1.2 mm 4 mps 764 mmHg 96%
    11:00 +11°C° 1.2 mm 4 mps 763 mmHg 95%
    12:00 +10°C° 1.2 mm 5 mps 761 mmHg 95%
    13:00 +12°C° 1.2 mm 5 mps 760 mmHg 94%
    14:00 +12°C° 0.7 mm 5 mps 759 mmHg 95%
    15:00 +13°C° 0.7 mm 4 mps 758 mmHg 96%
    16:00 +13°C° 0.7 mm 4 mps 757 mmHg 97%
    17:00 +14°C° 1.7 mm 5 mps 757 mmHg 96%
    18:00 +14°C° 1.7 mm 6 mps 756 mmHg 96%
    19:00 +14°C° 1.7 mm 6 mps 756 mmHg 95%
    20:00 +14°C° 0.8 mm 7 mps 756 mmHg 93%
    21:00 +15°C° 0.8 mm 7 mps 755 mmHg 91%
    22:00 +15°C° 0.8 mm 8 mps 755 mmHg 89%
    23:00 +15°C° 0 mm 7 mps 755 mmHg 88%

    Day after tomorrow, 10 December, Tuesday

    Time Temperature Precipitation Wind Pressure Humidity
    00:00 +15°C° 0 mm 7 mps 755 mmHg 87%
    01:00 +15°C° 0 mm 7 mps 755 mmHg 85%
    02:00 +15°C° 0 mm 7 mps 755 mmHg 85%
    03:00 +15°C° 0 mm 7 mps 755 mmHg 85%
    04:00 +15°C° 0 mm 7 mps 755 mmHg 84%
    05:00 +15°C° 0 mm 7 mps 755 mmHg 85%
    06:00 +15°C° 0 mm 6 mps 756 mmHg 85%
    07:00 +15°C° 0 mm 6 mps 756 mmHg 85%
    08:00 +16°C° 0 mm 6 mps 757 mmHg 83%
    09:00 +16°C° 0 mm 6 mps 757 mmHg 82%
    10:00 +17°C° 0 mm 6 mps 758 mmHg 80%
    11:00 +17°C° 0 mm 6 mps 758 mmHg 76%
    12:00 +17°C° 0 mm 5 mps 758 mmHg 72%
    13:00 +17°C° 0 mm 5 mps 758 mmHg 68%
    14:00 +17°C° 0.1 mm 4 mps 759 mmHg 70%
    15:00 +15°C° 0.1 mm 4 mps 759 mmHg 71%
    16:00 +14°C° 0.1 mm 3 mps 759 mmHg 72%
    17:00 +12°C° 0.5 mm 4 mps 760 mmHg 75%
    18:00 +10°C° 0.5 mm 4 mps 761 mmHg 77%
    19:00 +8°C° 0.5 mm 5 mps 762 mmHg 80%
    20:00 +6°C° 1 mm 5 mps 762 mmHg 80%
    21:00 +5°C° 1 mm 5 mps 763 mmHg 81%
    22:00 +3°C° 1 mm 5 mps 764 mmHg 81%
    23:00 +3°C° 2.4 mm 4 mps 764 mmHg 85%

    11 December, Wednesday

    Time Temperature Precipitation Wind Pressure Humidity
    00:00 +2°C° 2.4 mm 3 mps 765 mmHg 90%
    01:00 +1°C° 2.4 mm 3 mps 765 mmHg 94%
    02:00 0°C° 1.3 mm 3 mps 766 mmHg 94%
    03:00 0°C° 1.3 mm 3 mps 766 mmHg 93%
    04:00 -1°C° 1.3 mm 4 mps 766 mmHg 92%
    05:00 0°C° 1.2 mm 3 mps 767 mmHg 91%
    06:00 +1°C° 1.2 mm 2 mps 767 mmHg 91%
    07:00 +1°C° 1.2 mm 2 mps 768 mmHg 90%
    08:00 +1°C° 0 mm 2 mps 768 mmHg 88%
    09:00 +2°C° 0 mm 2 mps 769 mmHg 85%
    10:00 +1°C° 0 mm 3 mps 769 mmHg 83%
    11:00 +1°C° 0 mm 3 mps 769 mmHg 79%
    12:00 +1°C° 0 mm 4 mps 769 mmHg 74%
    13:00 +1°C° 0 mm 4 mps 769 mmHg 70%
    14:00 +1°C° 0 mm 4 mps 769 mmHg 70%
    15:00 +2°C° 0 mm 3 mps 769 mmHg 71%
    16:00 +1°C° 0 mm 3 mps 770 mmHg 71%
    17:00 +1°C° 0 mm 3 mps 771 mmHg 71%
    18:00 0°C° 0 mm 3 mps 771 mmHg 71%
    19:00 0°C° 0 mm 3 mps 772 mmHg 70%
    20:00 0°C° 0 mm 3 mps 773 mmHg 69%
    21:00 -1°C° 0 mm 3 mps 774 mmHg 67%
    22:00 -1°C° 0 mm 3 mps 774 mmHg 66%
    23:00 -2°C° 0 mm 3 mps 774 mmHg 66%

    12 December, Thursday

    Time Temperature Precipitation Wind Pressure Humidity
    00:00 -2°C° 0 mm 3 mps 775 mmHg 66%
    01:00 -4°C° 0 mm 3 mps 775 mmHg 66%
    02:00 -4°C° 0 mm 3 mps 775 mmHg 67%
    03:00 -4°C° 0 mm 3 mps 776 mmHg 68%
    04:00 -4°C° 0 mm 3 mps 776 mmHg 69%
    05:00 -5°C° 0 mm 3 mps 777 mmHg 66%
    06:00 -5°C° 0 mm 3 mps 778 mmHg 63%
    07:00 -5°C° 0 mm 3 mps 778 mmHg 60%
    08:00 -5°C° 0 mm 3 mps 779 mmHg 58%
    09:00 -4°C° 0 mm 3 mps 780 mmHg 56%
    10:00 -4°C° 0 mm 3 mps 780 mmHg 54%
    11:00 -2°C° 0 mm 3 mps 780 mmHg 54%
    12:00 -2°C° 0 mm 3 mps 780 mmHg 54%
    13:00 -1°C° 0 mm 3 mps 780 mmHg 54%
    14:00 -1°C° 0 mm 3 mps 780 mmHg 56%
    15:00 -1°C° 0 mm 2 mps 780 mmHg 58%
    16:00 -1°C° 0 mm 2 mps 780 mmHg 60%
    17:00 -2°C° 0 mm 3 mps 780 mmHg 59%
    18:00 -2°C° 0 mm 3 mps 780 mmHg 58%
    19:00 -4°C° 0 mm 3 mps 780 mmHg 56%
    20:00 -4°C° 0 mm 3 mps 780 mmHg 57%
    21:00 -4°C° 0 mm 3 mps 780 mmHg 58%
    22:00 -4°C° 0 mm 4 mps 780 mmHg 58%
    23:00 -4°C° 0 mm 4 mps 779 mmHg 62%

    13 December, Friday

    Time Temperature Precipitation Wind Pressure Humidity
    00:00 -3°C° 0 mm 4 mps 779 mmHg 65%
    01:00 -3°C° 0 mm 4 mps 778 mmHg 69%
    02:00 -3°C° 0 mm 4 mps 778 mmHg 71%
    03:00 -2°C° 0 mm 4 mps 777 mmHg 73%
    04:00 -1°C° 0 mm 4 mps 777 mmHg 75%
    05:00 -1°C° 0 mm 4 mps 776 mmHg 77%
    06:00 -1°C° 0 mm 4 mps 776 mmHg 80%
    07:00 0°C° 0 mm 4 mps 776 mmHg 83%
    08:00 0°C° 0 mm 4 mps 776 mmHg 83%
    09:00 +1°C° 0 mm 4 mps 775 mmHg 84%
    10:00 +1°C° 0 mm 5 mps 775 mmHg 85%
    11:00 +1°C° 0.1 mm 5 mps 774 mmHg 88%
    12:00 +2°C° 0.1 mm 5 mps 773 mmHg 91%
    13:00 +3°C° 0.1 mm 4 mps 772 mmHg 93%
    14:00 +2°C° 0.7 mm 5 mps 771 mmHg 93%
    15:00 +2°C° 0.7 mm 5 mps 770 mmHg 93%
    16:00 +3°C° 0.7 mm 6 mps 770 mmHg 94%
    17:00 +3°C° 0.5 mm 5 mps 769 mmHg 93%
    18:00 +3°C° 0.5 mm 5 mps 769 mmHg 93%
    19:00 +3°C° 0.5 mm 5 mps 768 mmHg 93%
    20:00 +3°C° 0.4 mm 5 mps 767 mmHg 93%
    21:00 +5°C° 0.4 mm 5 mps 767 mmHg 93%
    22:00 +5°C° 0.4 mm 5 mps 766 mmHg 93%
    23:00 +3°C° 0.3 mm 5 mps 765 mmHg 92%
    Show more